STARLETTE

Last updated on Fri Apr 18 2025 00:03:26 GMT+0000 (Coordinated Universal Time)

1 07646U 75010A 25107.57617724 -.00000119 00000+0 20329-4 0 9991 2 07646 49.8250 344.5537 0205610 97.0159 265.4165 13.82342223535663
UTC large
Height (km)
Speed (km/s)
/
Latitude / Longitude
Inclination (degrees)
Orbital Period (minutes)
Azimuth
Elevation
Range (km)
Doppler Factor

Next 0 passes for location: London (51.5072 / 0.1276)

Sorry there are no passes over London.